Location: Crayja
(6.2254°N, 10.6273°W)
Time: 08:25:49
(UTC+00:00)

STARLINK-57 - Pass Details

Date: 17 February 2020
Orbit: 529 x 530 km, 53.0° (Epoch: 07 April)

Event Time Altitude Azimuth Distance (km) Brightness Sun altitude
Exits shadow 05:37:35 46° 221° (SW) 713 3.9 -20.6°
Drops below altitude 10° 05:41:09 10° 162° (SSE) 1,767 6.6 -19.7°
Sets 05:43:25 0° 156° (SSE) 2,657 7.6 -19.1°
